Time_in_sec,Mx,My,Mz
1326900223.72064161,-0.05435714,0.58028787,-0.79323822
1326900223.76951742,-0.05396109,0.57920521,-0.79320902
1326900223.82149267,-0.05464391,0.58017641,-0.79376036
1326900223.86856079,-0.05430836,0.58042151,-0.79463154
1326900223.92551994,-0.05494972,0.57970959,-0.79466146
1326900223.96870685,-0.05441416,0.57931828,-0.79209310
1326900224.02063775,-0.05349610,0.58040613,-0.79395306
1326900224.06952047,-0.05387145,0.58150804,-0.79588366
1326900224.12062860,-0.05263338,0.57932746,-0.79478616
1326900224.16960454,-0.05357028,0.57979876,-0.79306507
1326900224.22066021,-0.05401617,0.58163208,-0.79614604
1326900224.26939249,-0.05277443,0.57992941,-0.79492491
1326900224.32081199,-0.05199737,0.58075833,-0.79476166
1326900224.37259793,-0.05313362,0.57983172,-0.79671931
1326900224.42065787,-0.05343844,0.58020228,-0.79749942
1326900224.46863556,-0.05333436,0.57982349,-0.79571563
1326900224.52062488,-0.05429759,0.58080161,-0.79666275
1326900224.56951952,-0.05387234,0.58162791,-0.79588455
1326900224.62064886,-0.05243153,0.58113033,-0.79554886
1326900224.66860294,-0.05389872,0.57945591,-0.79434872
1326900224.72151089,-0.05408693,0.58044899,-0.79753655
1326900224.76952577,-0.05273389,0.57922697,-0.79656637
1326900224.82063818,-0.05347105,0.57886904,-0.79596996
1326900224.86851001,-0.05450568,0.57983756,-0.79590636
1326900224.92064452,-0.05336768,0.58138537,-0.79610896
1326900224.96957469,-0.05363469,0.57873410,-0.79432923
1326900225.02181649,-0.05345548,0.58152175,-0.79763657
1326900225.06857228,-0.05322307,0.58030415,-0.79596657
1326900225.12151623,-0.05426059,0.57971770,-0.79614580
1326900225.16854358,-0.05323006,0.58135915,-0.79369169
1326900225.22053909,-0.05193414,0.58174998,-0.79806250
1326900225.26853704,-0.05222463,0.57848173,-0.79450423
1326900225.32055831,-0.05431572,0.57946563,-0.79487884
1326900225.36849308,-0.05296706,0.58066082,-0.79595518
1326900225.42053294,-0.05360207,0.58006734,-0.79585874
1326900225.46910071,-0.05380456,0.57943797,-0.79269481
1326900225.52162385,-0.05313072,0.58138669,-0.79647648
1326900225.57092929,-0.05344275,0.58089781,-0.79522187
1326900225.62055612,-0.05383078,0.58090204,-0.79524302
1326900225.66852212,-0.05424343,0.57935542,-0.79588866
1326900225.72169757,-0.05266403,0.58052987,-0.79517680
1326900225.76950312,-0.05325658,0.57909077,-0.79443800
1326900225.82154846,-0.05380919,0.58080149,-0.79714346
1326900225.86862659,-0.05282123,0.58233142,-0.79545176
1326900225.92151093,-0.05254271,0.58160686,-0.79517782
1326900225.96861649,-0.05322939,0.57932490,-0.79393089
1326900226.02154684,-0.05426315,0.58103436,-0.79602844
1326900226.06909084,-0.05224335,0.58099806,-0.79452312
1326900226.12052989,-0.05369776,0.58137858,-0.79511231
1326900226.16951346,-0.05309462,0.58042258,-0.79596043
1326900226.22152019,-0.05281688,0.58077508,-0.79556733
1326900226.26861691,-0.05249958,0.57872695,-0.79477459
1326900226.32152319,-0.05330363,0.58043915,-0.79736698
1326900226.36864185,-0.05255652,0.57957536,-0.79567146
1326900226.42162228,-0.05354401,0.58101356,-0.79472089
1326900226.46956301,-0.05292104,0.57933581,-0.79530919
1326900226.52152205,-0.05429647,0.58259624,-0.79642177
1326900226.56895661,-0.05293174,0.58077371,-0.79531991
1326900226.62164998,-0.05328622,0.58113056,-0.79470772
1326900226.66864514,-0.05425421,0.57897532,-0.79385746
1326900226.72150946,-0.05399734,0.58007294,-0.79600716
1326900226.76952982,-0.05311150,0.58097762,-0.79165339
1326900226.82164073,-0.05352510,0.58127248,-0.79662400
1326900226.86883116,-0.05084678,0.58158582,-0.79483163
1326900226.92206120,-0.05372848,0.58076292,-0.79346097
1326900226.96950626,-0.05337868,0.57909077,-0.79431784
1326900227.02053046,-0.05161940,0.58101857,-0.79715246
1326900227.06868601,-0.05227132,0.58184099,-0.79491103
1326900227.12151551,-0.05339562,0.58136743,-0.79433489
1326900227.16964841,-0.05351972,0.57969272,-0.79445660
1326900227.22069216,-0.05198923,0.58063716,-0.79463351
1326900227.26157427,-0.05336965,0.57884973,-0.79418880
1326900227.32067299,-0.05451832,0.57450193,-0.80132246
1326900227.36954641,-0.05180577,0.58005035,-0.79601437
1326900227.42106891,-0.05347083,0.58078349,-0.79572988
1326900227.46858168,-0.05442868,0.58018190,-0.79450959
1326900227.52151275,-0.05307011,0.58101618,-0.79545599
1326900227.57184577,-0.05378275,0.58125186,-0.79435515
1326900227.62063551,-0.05307735,0.58101755,-0.79558325
1326900227.66953993,-0.05307211,0.57934135,-0.79569793
1326900227.72053885,-0.05253547,0.58160549,-0.79505062
1326900227.76951098,-0.05478149,0.57934183,-0.79401559
1326900227.82053351,-0.05348621,0.58090609,-0.79598522
1326900227.86854267,-0.05200818,0.58123904,-0.79489243
1326900227.92151642,-0.05229951,0.58076942,-0.79553908
1326900227.96856213,-0.05387435,0.57995307,-0.79612643
1326900228.02051592,-0.05128283,0.58124024,-0.79574066
1326900228.06904602,-0.05367514,0.58125460,-0.79472977
1326900228.12139249,-0.05360731,0.58174354,-0.79574412
1326900228.16940045,-0.05363179,0.58028907,-0.79408646
1326900228.22152162,-0.05345813,0.58102041,-0.79547721
1326900228.26855254,-0.05322928,0.58028209,-0.79381084
1326900228.32066798,-0.05215034,0.58004630,-0.79527217
1326900228.36056447,-0.05394218,0.57946420,-0.79511207
1326900228.41890097,-0.05376935,0.57521653,-0.80166721
1326900228.46855259,-0.05391410,0.57957846,-0.79460406
1326900228.52161884,-0.05263138,0.58100230,-0.79454428
1326900228.56951451,-0.05306832,0.58077651,-0.79545420
1326900228.62093949,-0.05424142,0.58103025,-0.79564679
1326900228.66965199,-0.05271915,0.58027786,-0.79390985
1326900228.72154188,-0.05452095,0.58091736,-0.79604167
1326900228.76865387,-0.05276618,0.58076543,-0.79467678
1326900228.82154894,-0.05219547,0.58125144,-0.79591727
1326900228.87161565,-0.05253557,0.58064830,-0.79517066
1326900228.92120481,-0.05309908,0.58102167,-0.79596490
1326900228.96953249,-0.05261232,0.58135760,-0.79416531
1326900229.02135181,-0.05283582,0.58137697,-0.79582626
1326900229.06867433,-0.05279426,0.58065110,-0.79518473
1326900229.12176108,-0.05277342,0.58076680,-0.79480398
1326900229.16924977,-0.05427583,0.57993668,-0.79411906
1326900229.22064233,-0.05343276,0.58235502,-0.79713392
1326900229.26851821,-0.05363101,0.57921207,-0.79420561
1326900229.32055140,-0.05414106,0.58103436,-0.79614860
1326900229.36950421,-0.05318864,0.58053690,-0.79533225
1326900229.42154002,-0.05280832,0.58075851,-0.79575986
1326900229.46865630,-0.05272969,0.57990617,-0.79448164
1326900229.52741599,-0.05354979,0.58099967,-0.79516804
1326900229.56858373,-0.05422809,0.58041465,-0.79583478
1326900229.62053800,-0.05275029,0.58170450,-0.79462230
1326900229.66855836,-0.05386886,0.57933056,-0.79383898
1326900229.72058535,-0.05352599,0.58139229,-0.79662490
1326900229.76951528,-0.05304202,0.58113050,-0.79494804
1326900229.82088780,-0.05314875,0.58100790,-0.79457253
1326900229.86858273,-0.05340846,0.58103418,-0.79686964
1326900229.92555046,-0.05293976,0.58185214,-0.79532802
1326900229.96965456,-0.05316802,0.57873815,-0.79519159
1326900230.02155781,-0.05255719,0.58160967,-0.79543227
1326900230.06956267,-0.05346626,0.58114159,-0.79560530
1326900230.12151217,-0.05444052,0.58068597,-0.79692340
1326900230.16959095,-0.05362307,0.58027267,-0.79427934
1326900230.22049427,-0.05099237,0.58193403,-0.79541570
1326900230.26955128,-0.05322533,0.57895064,-0.79424828
1326900230.32150865,-0.05300090,0.58148974,-0.79678988
1326900230.36951089,-0.05198712,0.58145922,-0.79483253
1326900230.42102122,-0.05289954,0.58147043,-0.79500914
1326900230.46957493,-0.05438625,0.58051795,-0.79406905
1326900230.52051640,-0.05240123,0.58206654,-0.79523981
1326900230.56950545,-0.05130992,0.58025002,-0.79440671
1326900230.62156439,-0.05318891,0.58171839,-0.79553384
1326900230.66864586,-0.05135870,0.58097708,-0.79517525
1326900230.72151685,-0.05292216,0.58159441,-0.79539162
1326900230.76856399,-0.05248287,0.57954669,-0.79471922
1326900230.82056141,-0.05264014,0.58125144,-0.79727572
1326900230.86918974,-0.05244845,0.58064002,-0.79624659
1326900230.92055225,-0.05342504,0.58064026,-0.79528546
1326900230.96951365,-0.05250626,0.58074743,-0.79498261
1326900231.02150178,-0.05183330,0.58291191,-0.79648280
1326900231.06856894,-0.05328581,0.58027810,-0.79514855
1326900231.12160206,-0.05290233,0.58087283,-0.79513186
1326900231.16855812,-0.05407995,0.57885450,-0.79568887
1326900231.22055912,-0.05154415,0.58074993,-0.79619813
1326900231.26958585,-0.05303721,0.57967901,-0.79538435
1326900231.32155633,-0.05283283,0.58016503,-0.79626417
1326900231.36950374,-0.05191204,0.58194661,-0.79571944
1326900231.42108202,-0.05340878,0.58039790,-0.79502928
1326900231.46856737,-0.05276221,0.58039087,-0.79499400
1326900231.52151084,-0.05283450,0.58136165,-0.79614598
1326900231.56864333,-0.05381209,0.58052468,-0.79530573
1326900231.62064719,-0.05264727,0.58134919,-0.79512131
1326900231.66951728,-0.05268892,0.58111787,-0.79588270
1326900231.72124290,-0.05409967,0.58053303,-0.79582864
1326900231.76950264,-0.05300101,0.57967216,-0.79474837
1326900231.82053447,-0.05256229,0.58147585,-0.79587835
1326900231.86866474,-0.05166155,0.58120441,-0.79367185
1326900231.92151618,-0.05324772,0.58098859,-0.79439074
1326900231.96952701,-0.05400377,0.58027554,-0.79417330
1326900232.02103996,-0.05134690,0.58133376,-0.79492360
1326900232.06901455,-0.05195092,0.58145231,-0.79419655
1326900232.12266755,-0.05361583,0.58113188,-0.79631370
1326900232.16951799,-0.05232905,0.58013874,-0.79420787
1326900232.22062850,-0.05340410,0.58171290,-0.79478478
1326900232.26862550,-0.05306071,0.57906216,-0.79360616
1326900232.31847048,-0.05417920,0.58064461,-0.79494625
1326900232.36957359,-0.05205394,0.58180761,-0.79369754
1326900232.42121482,-0.05224028,0.58170027,-0.79472125
1326900232.46956706,-0.05270340,0.58026004,-0.79397553
1326900232.52100086,-0.05261831,0.58134371,-0.79461253
1326900232.56949282,-0.05290311,0.58108902,-0.79285115
1326900232.62062359,-0.05326855,0.58087295,-0.79477143
1326900232.66965771,-0.05121302,0.58169037,-0.79479200
1326900232.72085714,-0.05131426,0.58180606,-0.79429120
1326900232.76863146,-0.05379760,0.57966131,-0.79288977
1326900232.82162046,-0.05276110,0.58218509,-0.79475307
1326900232.86876941,-0.05194468,0.58061373,-0.79419029
1326900232.92074752,-0.05211732,0.58158040,-0.79484051
1326900232.96950173,-0.05371251,0.58074498,-0.79352677
1326900233.02153039,-0.05223950,0.58062345,-0.79484040
1326900233.06965518,-0.05227369,0.58144414,-0.79307294
1326900233.12149215,-0.05288774,0.58182710,-0.79475743
1326900233.16863918,-0.05377310,0.58025479,-0.79238546
1326900233.22067618,-0.05183430,0.58121407,-0.79444212
1326900233.26859117,-0.05307953,0.58062088,-0.79374498
1326900233.32066393,-0.05284519,0.58193862,-0.79399514
1326900233.36952019,-0.05177549,0.58108324,-0.79342365
1326900233.42064071,-0.05267166,0.58085215,-0.79334402
1326900233.47151613,-0.05344586,0.57966399,-0.79350460
1326900233.52150226,-0.05374147,0.58075052,-0.79403555
1326900233.56964374,-0.05225309,0.57964581,-0.79293233
1326900233.62059474,-0.05275486,0.58134651,-0.79474682
1326900233.67253876,-0.05282826,0.57880187,-0.79181653
1326900233.72057009,-0.05397113,0.58074778,-0.79354089
1326900233.76948905,-0.05279830,0.58049417,-0.79334837
1326900233.82058573,-0.05382646,0.58148444,-0.79544014
1326900233.87191606,-0.05206853,0.58085334,-0.79407191
1326900233.90951037,-0.05292405,0.58087701,-0.79551345
1326900233.96070886,-0.05366807,0.57637995,-0.80008668
1326900234.01002407,-0.05376040,0.57443702,-0.79741526
1326900234.06152964,-0.05279072,0.57730919,-0.79814357
1326900234.10939884,-0.05350668,0.57898104,-0.79692650
1326900234.16152978,-0.05400811,0.57491630,-0.79717857
1326900234.20954370,-0.05349242,0.57706428,-0.79691213
1326900234.26053739,-0.05415614,0.57829410,-0.79936606
1326900234.30969286,-0.05294365,0.57573670,-0.79649246
1326900234.36057138,-0.05369380,0.57908988,-0.79566950
1326900234.40954614,-0.05289386,0.57670748,-0.79776454
1326900234.46150780,-0.05245246,0.57729119,-0.79673028
1326900234.50957894,-0.05198121,0.57774961,-0.79518634
1326900234.56259871,-0.05415703,0.57755327,-0.79720539
1326900234.60917950,-0.05286011,0.57811338,-0.79472959
1326900234.66245079,-0.05257275,0.57705164,-0.79660833
1326900234.70950460,-0.05335486,0.57703805,-0.79449534
1326900234.76051259,-0.05372654,0.57766056,-0.79642195
1326900234.81354356,-0.05300580,0.57740015,-0.79511291
1326900234.85929251,-0.05330241,0.57851005,-0.79792637
1326900234.90970945,-0.05208680,0.57942128,-0.79456997
1326900234.96165037,-0.05341535,0.57836550,-0.79539561
1326900235.00949430,-0.05434593,0.57704109,-0.79378861
1326900235.06051421,-0.05290522,0.57931823,-0.79537457
1326900235.11347365,-0.05195403,0.57798368,-0.79467934
1326900235.16103864,-0.05387668,0.57668567,-0.79464811
1326900235.21302104,-0.05408118,0.57524264,-0.79388827
1326900235.26952052,-0.05291257,0.57836258,-0.79562181
1326900235.31127024,-0.05301370,0.57857472,-0.79283935
1326900235.36150122,-0.05447892,0.57742530,-0.79608089
1326900235.42026591,-0.05325006,0.57644320,-0.79499263
1326900235.46048522,-0.05266453,0.57903314,-0.79117531
1326900235.51502419,-0.05469054,0.57694066,-0.79532820
1326900235.56212449,-0.05254290,0.57692635,-0.79609865
1326900235.61411738,-0.05353307,0.57680953,-0.79539102
1326900235.66152334,-0.05395086,0.57693905,-0.79592186
1326900235.71249533,-0.05442278,0.57679325,-0.79290354
1326900235.76150966,-0.05231301,0.57798243,-0.79419172
1326900235.80978179,-0.05389829,0.57764685,-0.79490966
1326900235.86068916,-0.05273002,0.57789576,-0.79700327
1326900235.91273975,-0.05233283,0.57784337,-0.79228991
1326900235.96182275,-0.05326420,0.57931697,-0.79488695
1326900236.01356173,-0.05401769,0.57642686,-0.79262525
1326900236.06348801,-0.05251104,0.57761478,-0.79318553
1326900236.11256647,-0.05258968,0.57760656,-0.79230225
1326900236.16151595,-0.05302484,0.57618427,-0.79333019
1326900236.21265101,-0.05262231,0.57627368,-0.79077303
1326900236.26072717,-0.05280219,0.57810235,-0.79371202
1326900236.30967522,-0.05432332,0.57691711,-0.79340613
1326900236.36054754,-0.05383770,0.57641578,-0.79172784
1326900236.41255379,-0.05207699,0.57724291,-0.79239851
1326900236.46150565,-0.05315394,0.57896030,-0.79525882
1326900236.51260853,-0.05570800,0.57477212,-0.79308599
1326900236.56153750,-0.05324092,0.57629859,-0.79258204
1326900236.60951781,-0.05314770,0.57726109,-0.79309094
1326900236.66093850,-0.05219651,0.57678717,-0.79455727
1326900236.70948243,-0.05314602,0.57520390,-0.79104757
1326900236.76119041,-0.05475737,0.57728904,-0.79419321
1326900236.81353998,-0.05417942,0.57786995,-0.79302466
1326900236.86410236,-0.05282781,0.57571465,-0.79445726
1326900236.90933394,-0.05328503,0.57834065,-0.79310608
1326900236.96155763,-0.05454575,0.57777369,-0.79494584
1326900237.00934267,-0.05238173,0.57675278,-0.79101694
1326900237.06150103,-0.05428522,0.57762766,-0.79264838
1326900237.10948181,-0.05397414,0.57823622,-0.79390365
1326900237.16051555,-0.05307552,0.57619393,-0.79422057
1326900237.20954370,-0.05385585,0.57594073,-0.79210585
1326900237.26372504,-0.05397336,0.57715940,-0.79402274
1326900237.31250072,-0.05330975,0.57583320,-0.79385042
1326900237.36153507,-0.05345778,0.57835037,-0.79387629
1326900237.40954256,-0.05332067,0.57535678,-0.79410124
1326900237.46057296,-0.05210685,0.57822883,-0.79506975
1326900237.50950742,-0.05220642,0.57628733,-0.79252559
1326900237.56055927,-0.05279228,0.57774156,-0.79358214
1326900237.60954094,-0.05363599,0.57812184,-0.79477197
1326900237.66155362,-0.05168382,0.57642353,-0.79465353
1326900237.71353078,-0.05440385,0.57619148,-0.79264462
1326900237.76062465,-0.05264214,0.57871640,-0.79535598
1326900237.80954933,-0.05308889,0.57799089,-0.79423404
1326900237.86067414,-0.05313244,0.57704216,-0.79511726
1326900237.90950370,-0.05347616,0.57682192,-0.79665595
1326900237.96064377,-0.05177772,0.57835543,-0.79606706
1326900238.01354337,-0.05511468,0.57609117,-0.79382378
1326900238.06098461,-0.05350412,0.57766461,-0.79704380
1326900238.11262941,-0.05320740,0.57837230,-0.79627192
1326900238.16154122,-0.05394006,0.57645851,-0.79579109
1326900238.21305466,-0.05454229,0.57633746,-0.79506230
1326900238.26165438,-0.05195236,0.57764769,-0.79695910
1326900238.30967259,-0.05309813,0.57717848,-0.79676467
1326900238.36066365,-0.05398896,0.57622856,-0.79667968
1326900238.41364765,-0.05296158,0.57717568,-0.79663038
1326900238.46951580,-0.05198010,0.58040446,-0.79710698
1326900238.51359153,-0.05287537,0.58005351,-0.79702646
1326900238.56058526,-0.05315427,0.57694989,-0.79778045
1326900238.61280179,-0.05170933,0.57585347,-0.79744035
1326900238.66054821,-0.05450443,0.57685524,-0.79886764
1326900238.70980954,-0.05507135,0.57684708,-0.79750377
1326900238.76065111,-0.05189266,0.57739711,-0.79593974
1326900238.81258607,-0.05441755,0.57683867,-0.79734129
1326900238.87278986,-0.05311261,0.57804179,-0.79918063
1326900238.91366124,-0.05234554,0.57932770,-0.79686564
1326900238.96053290,-0.05400255,0.57697213,-0.79909474
1326900239.01265478,-0.05410568,0.57637042,-0.79871571
1326900239.06066179,-0.05284140,0.57731885,-0.79903394
1326900239.10961604,-0.05286513,0.57564855,-0.79965734
1326900239.16066408,-0.05582473,0.57749581,-0.80160677
1326900239.21370482,-0.05254212,0.57584953,-0.79621774
1326900239.26157904,-0.05065578,0.57705802,-0.79916656
1326900239.31253695,-0.05365415,0.57850736,-0.79731154
1326900239.36155176,-0.05350779,0.57804745,-0.79932898
1326900239.42154813,-0.05400522,0.57733154,-0.79909742
1326900239.46062255,-0.05389295,0.57778865,-0.79706585
1326900239.50950503,-0.05379114,0.57468218,-0.79792583
1326900239.56056309,-0.05194178,0.57697439,-0.80139154
1326900239.60952687,-0.05358130,0.57540637,-0.79868031
1326900239.66179538,-0.05424491,0.57759321,-0.80101424
1326900239.70958972,-0.05255315,0.57527667,-0.79875016
1326900239.76053095,-0.05248131,0.57911432,-0.79928064
1326900239.81353092,-0.05267589,0.57817113,-0.80055249
1326900239.86060023,-0.05247686,0.57851535,-0.79927611
1326900239.90954852,-0.05235021,0.57801270,-0.79711020
1326900239.96057224,-0.05446010,0.57844836,-0.80242676
1326900240.00960803,-0.05290299,0.57599145,-0.79801351
1326900240.06939745,-0.05321030,0.57853895,-0.80083776
1326900240.10939217,-0.05338996,0.58056039,-0.79921359
1326900240.16153598,-0.05274495,0.57579172,-0.80206090
1326900240.21250582,-0.05325763,0.57529479,-0.79980302
1326900240.26052260,-0.05362641,0.57747185,-0.80148685
1326900240.30949020,-0.05277380,0.57589364,-0.80028808
1326900240.36152983,-0.05256195,0.57829231,-0.80080068
1326900240.40952706,-0.05453996,0.57568890,-0.80190438
1326900240.46155882,-0.05284430,0.57748544,-0.80359983
1326900240.51254368,-0.05265974,0.57611120,-0.79825473
1326900240.56151366,-0.05471427,0.57699156,-0.80027479
1326900240.60923076,-0.05407138,0.57650673,-0.80036312
1326900240.66951942,-0.05244812,0.57745641,-0.80116898
1326900240.70954394,-0.05134021,0.57826859,-0.79971963
1326900240.76054692,-0.05144257,0.57745069,-0.80162132
1326900240.81362963,-0.05317421,0.57757503,-0.80032182
1326900240.86951995,-0.05212634,0.57662743,-0.80241346
1326900240.90968084,-0.05242518,0.58020353,-0.80042642
1326900240.96552658,-0.05196807,0.57662046,-0.80189764
1326900241.00959229,-0.05336355,0.57495606,-0.80170828
1326900241.06063771,-0.05388515,0.57651770,-0.80162096
1326900241.10954428,-0.05303331,0.57601625,-0.80030310
1326900241.16053462,-0.05357229,0.57688665,-0.80287445
1326900241.21358943,-0.05405244,0.57590497,-0.80010426
1326900241.26150966,-0.05209193,0.57772070,-0.80394083
1326900241.31366158,-0.05265896,0.57589501,-0.80053544
1326900241.36055660,-0.05374938,0.57759172,-0.80136758
1326900241.40956616,-0.05466348,0.57793891,-0.79926437
1326900241.46062899,-0.05290199,0.57768929,-0.80005419
1326900241.50950122,-0.05308031,0.57564312,-0.79890829
